Wilmington, DE

5:54 AM EST on December 15, 2019 (GMT -0500)
New Castle County

Weather History for KILG - November, 2019

Change the Weather History Date:

Tuesday, November 19, 2019

  Actual Average Record
Temperature  
Mean Temperature 47 °F 46 °F  
Max Temperature 55 °F 55 °F 75 °F (1921)
Min Temperature 39 °F 37 °F 15 °F (1936)
Degree Days  
Heating Degree Days 18 20  
Month to date heating degree days 425 317  
Since 1 July heating degree days 595 661  
Cooling Degree Days 0 0  
Month to date cooling degree days 0 0  
Year to date cooling degree days 1508 1145  
Moisture  
Dew Point 36 °F    
Average Humidity 69    
Maximum Humidity 92    
Minimum Humidity 46    
Precipitation  
Precipitation T in 0.11 in 1.28 in (1898)
Month to date precipitation 0.21 1.88  
Year to date precipitation 42.30 38.38  
Snow  
Snow 0.00 in 0.00 in 4.30 in (1955)
Month to date snowfall T 0.0  
Since 1 July snowfall T 0.0  
Since 1 September snowfall T 0.0  
Snow Depth 0.00 in    
Sea Level Pressure  
Sea Level Pressure 29.81 in    
Wind  
Wind Speed 4 mph (West)    
Max Wind Speed 12 mph    
Max Gust Speed 13 mph    
Visibility 8 miles    
Events Rain    
T = Trace of Precipitation, MM = Missing Value Source: NWS Daily Summary

Daily Weather History Graph

Daily Weather History Graph

Search for Another Location

Airport or City:

Astronomy

Nov. 19, 2019 Rise Set
Actual Time 6:51 AM EST 4:44 PM EST
Civil Twilight 6:21 AM EST 5:13 PM EST
Nautical Twilight 5:49 AM EST 5:46 PM EST
Astronomical Twilight 5:17 AM EST 6:18 PM EST
Moon 11:36 PM EST (11/19) 1:00 PM EST (11/19)
Length of Visible Light 10h 51m
Length of Day
9h 53m
Waning Gibbous, 52% of the Moon is Illuminated
Nov 19
Waning Gibbous
Nov 19
Last Quarter
Nov 26
New
Dec 4
First Quarter
Dec 12
Full

Hourly Weather History & Observations

Time (EST) Temp. Windchill Dew Point Humidity Pressure Visibility Wind Dir Wind Speed Gust Speed Precip Events Conditions
12:51 AM 42.1 °F 40.2 °F 37.0 °F 82% 29.75 in 10.0 mi WSW 3.5 mph - N/A   Overcast
1:22 AM 42.1 °F 38.4 °F 37.0 °F 82% 29.75 in 10.0 mi West 5.8 mph - N/A   Overcast
1:46 AM 42.8 °F 41.1 °F 37.4 °F 81% 29.76 in 10.0 mi SW 3.5 mph - 0.00 in Rain Light Rain
1:51 AM 42.1 °F 40.2 °F 37.0 °F 82% 29.76 in 10.0 mi WSW 3.5 mph - 0.00 in Rain Light Rain
2:51 AM 42.1 °F 40.2 °F 37.0 °F 82% 29.75 in 10.0 mi West 3.5 mph - 0.00 in   Overcast
3:51 AM 42.1 °F 39.2 °F 37.9 °F 85% 29.75 in 9.0 mi West 4.6 mph - N/A   Overcast
4:51 AM 39.9 °F 37.8 °F 37.0 °F 89% 29.76 in 8.0 mi WSW 3.5 mph - N/A   Overcast
5:40 AM 39.0 °F 35.7 °F 37.0 °F 93% 29.78 in 6.0 mi WSW 4.6 mph - N/A   Mostly Cloudy
5:51 AM 39.9 °F 36.7 °F 37.0 °F 89% 29.78 in 6.0 mi West 4.6 mph - N/A   Overcast
6:23 AM 41.0 °F 36.4 °F 37.9 °F 89% 29.79 in 7.0 mi West 6.9 mph - N/A   Overcast
6:51 AM 42.1 °F 36.6 °F 37.0 °F 82% 29.80 in 8.0 mi West 9.2 mph - N/A   Overcast
7:51 AM 42.1 °F 38.4 °F 37.9 °F 85% 29.83 in 6.0 mi WSW 5.8 mph - N/A   Overcast
8:51 AM 43.0 °F 37.7 °F 37.9 °F 82% 29.83 in 7.0 mi NW 9.2 mph - N/A   Overcast
9:19 AM 43.0 °F 39.5 °F 37.0 °F 80% 29.83 in 6.0 mi NNW 5.8 mph - N/A   Haze
9:51 AM 44.1 °F - 37.0 °F 76% 29.85 in 6.0 mi Calm Calm - N/A   Haze
11:51 AM 48.9 °F - 37.0 °F 64% 29.82 in 7.0 mi Calm Calm - N/A   Clear
12:51 PM 53.1 °F - 37.9 °F 57% 29.80 in 7.0 mi Variable 3.5 mph - N/A   Clear
1:51 PM 52.0 °F - 37.9 °F 59% 29.80 in 7.0 mi SE 8.1 mph - N/A   Clear
2:51 PM 54.0 °F - 34.0 °F 47% 29.80 in 9.0 mi WNW 8.1 mph - N/A   Clear
4:51 PM 46.9 °F - 33.1 °F 59% 29.82 in 10.0 mi NNW 6.9 mph - N/A   Clear
5:51 PM 48.9 °F - 34.0 °F 56% 29.85 in 10.0 mi Calm Calm - N/A   Clear
6:51 PM 46.9 °F - 34.0 °F 61% 29.86 in 10.0 mi WSW 3.5 mph - N/A   Clear
7:51 PM 46.0 °F - 35.1 °F 66% 29.87 in 9.0 mi Calm Calm - N/A   Clear
8:51 PM 46.0 °F 41.4 °F 35.1 °F 66% 29.89 in 9.0 mi NE 9.2 mph - N/A   Scattered Clouds
9:51 PM 46.0 °F 43.1 °F 34.0 °F 63% 29.89 in 10.0 mi NE 5.8 mph - N/A   Overcast
10:51 PM 45.0 °F 42.6 °F 33.1 °F 63% 29.89 in 10.0 mi NNE 4.6 mph - N/A   Mostly Cloudy
11:51 PM 45.0 °F - 33.1 °F 63% 29.88 in 10.0 mi Calm Calm - N/A   Mostly Cloudy